Location: Castelbiague
(43.0361°N, 0.9246°E)
Time: 12:21:44
(UTC+00:00)

Meteor 1-4 Rocket - Pass Details

Date: 23 October 2021
Orbit: 446 x 496 km, 81.2° (Epoch: 29 November)

Event Time Altitude Azimuth Distance (km) Brightness Sun altitude
Rises 18:57:00 0° 205° (SSW) 2,472 6.4 -21.9°
Reaches altitude 10° 18:59:10 10° 213° (SSW) 1,595 5.5 -22.3°
Maximum altitude 19:02:27 38° 284° (WNW) 704 3.8 -22.9°
Drops below altitude 10° 19:05:43 10° 354° (N) 1,590 5.3 -23.5°
Enters shadow 19:07:09 - 1° (N) 2,163 5.9 -23.7°
